EW7216 Palestrina IT current weather conditions

sailwx.info

Wind from 122 at 13 knots gusting 24

Air temperature 6.1° C
Dewpoint 6.0° C

Last reported at 2019-Dec-13 12:00 UTC.
Time now 2019-Dec-13 12:37 UTC

Location: N 41°51' E 012°53'.
View on Google Maps.

See reports from other nearby stations

  
Tides and Currents Weather Stations Pressure Air Temp Water Temp Dewpoint Dewpoint Depression Visibility Wind Speed Wind Dir Waves Ship Positions
date/time (UTC)wind fromknots sea level pressurealtimeterstation pressurevisibilityair tempwater tempwave heightnotes
2019-Dec-13 12:00 122 13 gusting 24 6.1
2019-Dec-13 11:50 125 12 gusting 17 6.1
2019-Dec-13 11:40 117 14 gusting 21 6.1
2019-Dec-13 11:30 119 13 gusting 19 6.7
2019-Dec-13 11:20 118 13 gusting 19 6.7
2019-Dec-13 11:10 119 8 gusting 13 6.1
2019-Dec-13 11:00 122 13 gusting 19 5.6
2019-Dec-13 10:50 127 10 gusting 19 5.6
2019-Dec-13 10:40 127 11 gusting 21 5.6
2019-Dec-13 10:30 122 15 gusting 21 5.6
2019-Dec-13 10:20 126 14 gusting 24 5.6
2019-Dec-13 10:10 124 15 gusting 19 5.6
2019-Dec-13 10:00 123 15 gusting 24 5.6
2019-Dec-13 09:50 119 13 gusting 21 5.6
2019-Dec-13 09:40 119 14 gusting 24 5.6
2019-Dec-13 09:30 118 13 gusting 24 5.0
2019-Dec-13 09:20 114 13 gusting 26 5.0
2019-Dec-13 09:10 118 14 gusting 24 4.4
2019-Dec-13 09:00 118 14 gusting 19 4.4
2019-Dec-13 08:50 129 13 gusting 21 4.4
2019-Dec-13 08:40 118 9 gusting 19 4.4
2019-Dec-13 08:30 129 13 gusting 21 4.4
2019-Dec-13 08:20 110 10 gusting 26 4.4
2019-Dec-13 08:10 122 14 gusting 26 4.4
2019-Dec-13 08:00 122 12 gusting 19 4.4
2019-Dec-13 07:50 118 13 gusting 21 4.4
2019-Dec-13 07:40 117 12 gusting 27 4.4
2019-Dec-13 07:30 122 13 gusting 17 4.4
2019-Dec-13 07:20 123 14 gusting 21 4.4
2019-Dec-13 07:10 114 7 gusting 21 4.4
2019-Dec-13 07:00 113 8 gusting 17 4.4
2019-Dec-13 06:50 120 14 gusting 24 4.4
2019-Dec-13 06:40 120 12 gusting 19 4.4
2019-Dec-13 06:30 119 11 gusting 17 4.4
2019-Dec-13 06:20 123 13 gusting 21 4.4
2019-Dec-13 06:10 119 10 gusting 17 5.0
2019-Dec-13 06:00 122 12 gusting 19 5.0
2019-Dec-13 05:50 123 11 gusting 17 5.0
2019-Dec-13 05:40 120 11 gusting 17 5.0
2019-Dec-13 05:30 116 10 gusting 19 5.6
2019-Dec-13 05:20 119 5 gusting 13 6.1
2019-Dec-13 05:10 117 7 gusting 14 6.1
2019-Dec-13 05:00 122 10 gusting 17 6.1
2019-Dec-13 04:50 122 10 gusting 14 6.1
2019-Dec-13 04:40 118 9 gusting 17 6.1
2019-Dec-13 04:30 117 8 gusting 13 6.1
2019-Dec-13 04:20 116 8 gusting 14 6.1
2019-Dec-13 04:10 122 8 gusting 13 6.1
2019-Dec-13 04:00 121 7 gusting 10 5.6
2019-Dec-13 03:50 117 8 gusting 13 5.6
2019-Dec-13 03:40 122 8 gusting 13 5.6
2019-Dec-13 03:30 121 7 gusting 13 5.6
2019-Dec-13 03:20 119 8 gusting 13 5.6
2019-Dec-13 03:10 122 6 gusting 8 5.6
2019-Dec-13 03:00 121 7 gusting 13 5.6
2019-Dec-13 02:50 120 6 gusting 10 5.6
2019-Dec-13 02:40 119 5 gusting 10 5.0
2019-Dec-13 02:30 5.6
2019-Dec-13 02:20 120 3 gusting 6 5.6
2019-Dec-13 02:10 135 0 gusting 1 5.6
2019-Dec-13 02:00 122 4 gusting 6 5.6
2019-Dec-13 01:50 119 4 gusting 6 5.6
2019-Dec-13 01:40 117 4 gusting 6 5.6
2019-Dec-13 01:30 120 2 gusting 4 5.6
2019-Dec-13 01:20 126 1 gusting 6 5.6
2019-Dec-13 01:10 122 2 gusting 4 5.6
2019-Dec-13 01:00 121 2 gusting 4 5.0
2019-Dec-13 00:50 120 2 gusting 4 5.0
2019-Dec-13 00:40 5.0
2019-Dec-13 00:30 5.0
2019-Dec-13 00:20 5.0
2019-Dec-13 00:10 5.0
2019-Dec-13 00:00 5.0
2019-Dec-12 23:50 4.4
2019-Dec-12 23:40 4.4
2019-Dec-12 23:30 4.4
2019-Dec-12 23:20 4.4
2019-Dec-12 23:10 5.0
2019-Dec-12 23:00 5.0
2019-Dec-12 22:50 5.0
2019-Dec-12 22:40 5.0
2019-Dec-12 22:30 5.6
2019-Dec-12 22:20 272 5.6
2019-Dec-12 22:10 289 5.6
2019-Dec-12 22:00 263 0 gusting 4 5.6
2019-Dec-12 21:50 283 0 gusting 4 5.6
2019-Dec-12 21:40 266 0 gusting 4 5.6
2019-Dec-12 21:30 5.6
2019-Dec-12 21:20 279 0 gusting 4 5.6
2019-Dec-12 21:10 273 0 gusting 1 5.0
2019-Dec-12 21:00 274 1 gusting 4 5.0
2019-Dec-12 20:50 5.0
2019-Dec-12 20:40 5.0
2019-Dec-12 20:30 5.0
2019-Dec-12 20:20 251 0 gusting 4 5.0
2019-Dec-12 20:10 5.6
2019-Dec-12 20:00 5.6
2019-Dec-12 19:50 274 5.6
2019-Dec-12 19:40 5.6
2019-Dec-12 19:30 5.6
2019-Dec-12 19:20 5.6
2019-Dec-12 19:10 5.6
2019-Dec-12 19:00 5.6
2019-Dec-12 18:50 5.6
2019-Dec-12 18:40 5.6
2019-Dec-12 18:30 5.6
2019-Dec-12 18:20 5.6
2019-Dec-12 18:10 5.6
2019-Dec-12 18:00 5.6
2019-Dec-12 17:50 5.6
2019-Dec-12 17:40 5.6
2019-Dec-12 17:30 259 0 gusting 1 5.6
2019-Dec-12 17:20 273 0 gusting 1 6.1
2019-Dec-12 17:10 251 6.1
2019-Dec-12 17:00 231 6.1
2019-Dec-12 16:50 254 1 gusting 1 5.6
2019-Dec-12 16:40 251 1 gusting 1 5.6
2019-Dec-12 16:30 121 6.1
2019-Dec-12 16:20 102 0 gusting 4 6.1
2019-Dec-12 16:10 102 6.1
2019-Dec-12 16:00 257 0 gusting 4 6.1
2019-Dec-12 15:50 262 1 gusting 4 6.1
2019-Dec-12 15:40 6.1
2019-Dec-12 15:30 6.1
2019-Dec-12 15:20 6.7
2019-Dec-12 15:10 242 0 gusting 1 6.7
2019-Dec-12 15:00 7.2
2019-Dec-12 14:50 257 0 gusting 6 7.2
2019-Dec-12 14:40 265 3 gusting 8 6.7
2019-Dec-12 14:30 260 5 gusting 10 6.1
2019-Dec-12 14:20 265 4 gusting 8 5.0
2019-Dec-12 14:10 271 3 gusting 10 5.0
2019-Dec-12 14:00 254 6 gusting 13 5.0
2019-Dec-12 13:50 277 6 gusting 10 5.0
2019-Dec-12 13:40 256 7 gusting 13 4.4
2019-Dec-12 13:30 268 6 gusting 13 4.4
2019-Dec-12 13:20 275 6 gusting 10 4.4
2019-Dec-12 13:10 267 5 gusting 10 5.0
2019-Dec-12 13:00 274 8 gusting 17 6.7
2019-Dec-12 12:50 270 10 gusting 21 7.8
2019-Dec-12 12:40 265 9 gusting 26 8.3
2019-Dec-12 12:30 086 8.3
2019-Dec-12 12:20 099 8.3
2019-Dec-12 12:10 100 8.3
2019-Dec-12 12:00 109 0 gusting 4 8.9
2019-Dec-12 11:50 112 8.9
2019-Dec-12 11:40 092 8.9
2019-Dec-12 11:30 110 1 gusting 6 8.3
2019-Dec-12 11:20 109 8.3
2019-Dec-12 11:10 116 0 gusting 4 8.9
2019-Dec-12 11:00 109 8.9
2019-Dec-12 10:50 112 0 gusting 4 8.9
2019-Dec-12 10:40 122 8.3
2019-Dec-12 10:30 117 0 gusting 6 7.8
2019-Dec-12 10:20 116 0 gusting 4 7.2
2019-Dec-12 10:10 120 3 gusting 6 7.2
2019-Dec-12 10:00 121 5 gusting 10 7.2
2019-Dec-12 09:50 122 6 gusting 10 6.7
2019-Dec-12 09:40 114 4 gusting 8 6.7
2019-Dec-12 09:30 115 3 gusting 8 6.7
2019-Dec-12 09:20 117 6 gusting 10 6.7
2019-Dec-12 09:10 123 7 gusting 10 6.7
2019-Dec-12 09:00 121 7 gusting 10 6.7
2019-Dec-12 08:50 118 6 gusting 10 6.7
2019-Dec-12 08:40 115 6 gusting 10 6.7
2019-Dec-12 08:30 113 2 gusting 8 6.7
2019-Dec-12 08:20 114 2 gusting 6 6.7
2019-Dec-12 08:10 115 5 gusting 10 6.1
2019-Dec-12 08:00 121 7 gusting 10 6.1
2019-Dec-12 07:50 122 6 gusting 10 6.1
2019-Dec-12 07:40 114 5 gusting 13 6.1
2019-Dec-12 07:30 119 7 gusting 13 6.1
2019-Dec-12 07:20 116 8 gusting 13 6.1
2019-Dec-12 07:00 118 7 gusting 10 6.1
2019-Dec-12 06:50 119 9 gusting 13 6.1
2019-Dec-12 06:40 124 9 gusting 13 6.1
2019-Dec-12 06:30 119 9 gusting 13 6.1
2019-Dec-12 06:20 116 9 gusting 14 6.7
2019-Dec-12 06:10 116 5 gusting 13 6.7
2019-Dec-12 06:00 119 7 gusting 10 6.7
2019-Dec-12 05:50 124 7 gusting 13 6.1
2019-Dec-12 05:40 124 9 gusting 13 6.1
2019-Dec-12 05:30 121 11 gusting 14 6.1
2019-Dec-12 05:20 117 3 gusting 10 6.7
2019-Dec-12 05:10 116 6 gusting 10 6.1
2019-Dec-12 05:00 118 8 gusting 13 6.1
2019-Dec-12 04:50 122 8 gusting 13 6.1
2019-Dec-12 04:40 119 8 gusting 14 5.6
2019-Dec-12 04:30 117 7 gusting 14 5.6
2019-Dec-12 04:20 121 7 gusting 10 5.6
2019-Dec-12 04:10 117 7 gusting 10 5.6
2019-Dec-12 04:00 118 6 gusting 10 5.6
2019-Dec-12 03:50 121 6 gusting 8 5.6
2019-Dec-12 03:40 118 5 gusting 8 5.6
2019-Dec-12 03:30 120 4 gusting 6 5.6
2019-Dec-12 03:20 120 3 gusting 6 5.6
2019-Dec-12 03:10 120 3 gusting 6 5.6
2019-Dec-12 03:00 109 0 gusting 4 6.1
2019-Dec-12 02:50 121 2 gusting 6 6.1
2019-Dec-12 02:40 106 6.7
2019-Dec-12 02:30 112 1 gusting 10 6.7
2019-Dec-12 02:20 108 1 gusting 4 6.7
2019-Dec-12 02:10 118 2 gusting 6 6.1
2019-Dec-12 02:00 116 5 gusting 8 6.1
2019-Dec-12 01:50 119 6 gusting 10 6.1
2019-Dec-12 01:40 119 6 gusting 10 5.6
2019-Dec-12 01:30 122 6 gusting 10 5.6
2019-Dec-12 01:20 120 6 gusting 10 5.6
2019-Dec-12 01:10 114 3 gusting 8 6.1
2019-Dec-12 01:00 115 5 gusting 10 6.1
2019-Dec-12 00:50 097 6.1
2019-Dec-12 00:40 116 2 gusting 6 6.1
2019-Dec-12 00:30 6.7
2019-Dec-12 00:20 118 0 gusting 4 6.7
2019-Dec-12 00:10 128 6 gusting 10 6.7
2019-Dec-12 00:00 122 6 gusting 8 6.7
2019-Dec-11 23:50 120 6 gusting 10 6.7
2019-Dec-11 23:40 122 2 gusting 6 6.7
2019-Dec-11 23:30 119 5 gusting 8 6.7
2019-Dec-11 23:20 124 5 gusting 8 6.7
2019-Dec-11 23:10 119 6 gusting 13 6.7
2019-Dec-11 23:00 116 6 gusting 8 7.2
2019-Dec-11 22:50 120 7 gusting 10 7.2
2019-Dec-11 22:40 119 6 gusting 10 7.2
2019-Dec-11 22:30 116 6 gusting 10 7.2
2019-Dec-11 22:20 121 6 gusting 10 7.2
2019-Dec-11 22:10 121 6 gusting 10 7.2
2019-Dec-11 22:00 123 5 gusting 8 7.2
2019-Dec-11 21:50 123 5 gusting 8 7.2
2019-Dec-11 21:40 117 5 gusting 10 7.2
2019-Dec-11 21:30 121 5 gusting 8 7.2
2019-Dec-11 21:20 118 4 gusting 6 7.2
2019-Dec-11 21:10 118 4 gusting 8 7.2
2019-Dec-11 21:00 123 4 gusting 6 7.2
2019-Dec-11 20:50 118 4 gusting 8 7.2
2019-Dec-11 20:40 121 4 gusting 6 7.2
2019-Dec-11 20:30 122 3 gusting 6 7.2
2019-Dec-11 20:20 117 2 gusting 4 7.2
2019-Dec-11 20:10 117 2 gusting 4 7.2
2019-Dec-11 20:00 115 2 gusting 6 7.2
2019-Dec-11 19:50 115 2 gusting 4 6.7
2019-Dec-11 19:40 116 6.1
2019-Dec-11 19:30 6.1
2019-Dec-11 19:20 5.6
2019-Dec-11 19:10 5.6
2019-Dec-11 19:00 5.6
2019-Dec-11 18:50 5.6
2019-Dec-11 18:40 5.6
2019-Dec-11 18:30 5.6
2019-Dec-11 18:20 5.6
2019-Dec-11 18:10 5.6
2019-Dec-11 18:00 5.0
2019-Dec-11 17:50 5.6
2019-Dec-11 17:40 5.6
2019-Dec-11 17:30 6.1
2019-Dec-11 17:20 6.1
2019-Dec-11 17:10 6.1
2019-Dec-11 17:00 6.1
2019-Dec-11 16:50 6.1
2019-Dec-11 16:40 264 6.7
2019-Dec-11 16:30 274 0 gusting 1 6.7
2019-Dec-11 16:20 268 0 gusting 1 6.7
2019-Dec-11 16:10 273 0 gusting 1 6.7
2019-Dec-11 16:00 274 1 gusting 4 7.2
2019-Dec-11 15:50 269 2 gusting 4 7.2
2019-Dec-11 15:40 259 2 gusting 4 7.2
2019-Dec-11 15:30 254 3 gusting 6 7.8
2019-Dec-11 15:20 261 2 gusting 6 7.8
2019-Dec-11 15:10 266 4 gusting 8 8.3
2019-Dec-11 15:00 262 4 gusting 6 8.3
2019-Dec-11 14:50 258 3 gusting 8 8.3
2019-Dec-11 14:40 272 4 gusting 6 8.9
2019-Dec-11 14:30 261 3 gusting 6 8.3
2019-Dec-11 14:20 271 2 gusting 6 8.3
2019-Dec-11 14:10 262 1 gusting 6 8.3
2019-Dec-11 14:00 267 2 gusting 4 8.3
2019-Dec-11 13:50 252 3 gusting 6 8.3
2019-Dec-11 13:40 270 4 gusting 6 8.3
2019-Dec-11 13:30 274 4 gusting 8 8.3
2019-Dec-11 13:20 261 4 gusting 8 8.9
2019-Dec-11 13:10 273 4 gusting 10 8.9
2019-Dec-11 13:00 260 4 gusting 8 8.9
2019-Dec-11 12:50 270 3 gusting 6 9.4
2019-Dec-11 12:40 258 2 gusting 6 9.4
2019-Dec-11 12:30 260 3 gusting 8 8.9
2019-Dec-11 12:20 243 8.9
2019-Dec-11 12:10 266 8.9
2019-Dec-11 12:00 265 0 gusting 4 8.9